Tracking 23758 objects as of 26-Oct-2021
HD Live streaming from Space Station
objects crossing your sky now

COSMOS 1375 DEB

Track COSMOS 1375 DEB now!
10-day predictions


NORAD ID: 16209
Int'l Code: 1982-055L
Perigee: 993.7 km
Apogee: 1,010.4 km
Inclination: 65.8 °
Period: 105.0 minutes
Semi major axis: 7373 km
RCS: 0.5415 m2 (medium)
Launch date: June 6, 1982
Source: Commonwealth of Independent States (former USSR) (CIS)
Launch site: PLESETSK MISSILE AND SPACE COMPLEX (PKMTR)

Note: This is SATELLITE DEBRIS
aabbcc
Your satellite tracking list
Your tracking list is empty




NASA's NSSDC Master Catalog

Two Line Element Set (TLE):
1 16209U 82055L   21299.45402747 -.00000079  00000-0  98452-6 0  9995
2 16209  65.8334 113.0380 0011347 150.9610 228.7690 13.71303067808037
Source of the keplerian elements: AFSPC